GW7025 Weather Reports


time (UTC)temp
C
wind
direction
speed
KPH
gust
KPH
rain 1hr
cm
rain 24hr
cm
rain mn
cm
humidity
%
barometer
mb
20260505082530 22 6 0.0 0.0 0.00 0.00 0.00 87 1009.4
20260505082027 22 5 0.0 0.0 0.00 0.00 0.00 87 1009.3
20260505081523 22 5 0.0 0.0 0.00 0.00 0.00 86 1009.4
20260505081021 22 6 0.0 0.0 0.00 0.00 0.00 86 1009.6
20260505080517 23 5 1.6 1.6 0.00 0.00 0.00 86 1009.5
20260505080014 23 5 1.6 1.6 0.00 0.00 0.00 85 1009.5
20260505075510 23 6 1.6 0.0 0.00 0.00 0.00 85 1009.4
20260505075007 23 5 1.6 1.6 0.00 0.00 0.00 86 1009.2
20260505074504 23 6 0.0 0.0 0.00 0.00 0.00 86 1009.3
20260505074001 22 5 0.0 0.0 0.00 0.00 0.00 86 1009.3
20260505073458 22 6 0.0 0.0 0.00 0.00 0.00 86 1009.5
20260505072955 22 5 0.0 0.0 0.00 0.00 0.00 86 1009.3
20260505072451 22 5 0.0 0.0 0.00 0.00 0.00 86 1009.3
20260505071948 23 5 0.0 1.6 0.00 0.00 0.00 86 1009.1
20260505071444 23 5 0.0 0.0 0.00 0.00 0.00 85 1009.6
20260505070942 23 6 0.0 0.0 0.00 0.00 0.00 85 1009.3
20260505070439 23 6 0.0 0.0 0.00 0.00 0.00 85 1009.4
20260505065934 23 5 1.6 0.0 0.00 0.00 0.00 85 1009.4
20260505065431 23 6 0.0 0.0 0.00 0.00 0.00 85 1009.2
20260505064927 23 5 0.0 0.0 0.00 0.00 0.00 85 1009.5
20260505064425 23 5 0.0 0.0 0.00 0.00 0.00 84 1009.5
20260505063923 23 6 0.0 0.0 0.00 0.00 0.00 84 1009.4
20260505063419 23 5 0.0 0.0 0.00 0.00 0.00 84 1009.4
20260505062916 23 6 0.0 0.0 0.00 0.00 0.00 84 1009.5
20260505062413 23 6 0.0 0.0 0.00 0.00 0.00 84 1009.4
20260505061909 23 5 0.0 0.0 0.00 0.00 0.00 84 1009.5
20260505061408 23 6 0.0 0.0 0.00 0.00 0.00 84 1009.6
20260505060905 23 5 1.6 1.6 0.00 0.00 0.00 84 1009.4
20260505060402 23 6 1.6 1.6 0.00 0.00 0.00 84 1009.7
20260505055858 23 6 1.6 1.6 0.00 0.00 0.00 84 1009.8
20260505055354 23 6 0.0 0.0 0.00 0.00 0.00 84 1009.7
20260505054851 23 6 0.0 0.0 0.00 0.00 0.00 83 1009.7
20260505054348 23 6 0.0 0.0 0.00 0.00 0.00 83 1009.9
20260505053847 23 6 1.6 1.6 0.00 0.00 0.00 83 1009.8
20260505053344 23 6 0.0 0.0 0.00 0.00 0.00 82 1010.0
20260505052840 24 6 1.6 1.6 0.00 0.00 0.00 81 1010.1
20260505052337 25 6 0.0 0.0 0.00 0.00 0.00 80 1009.9
20260505051834 25 6 1.6 1.6 0.00 0.00 0.00 80 1010.0
20260505051331 24 6 1.6 1.6 0.00 0.00 0.00 81 1010.1
20260505050829 24 6 0.0 0.0 0.00 0.00 0.00 81 1010.3
20260505050328 23 6 1.6 1.6 0.00 0.00 0.00 82 1010.2
20260505041757 24 6 1.6 1.6 0.00 0.00 0.00 81 1010.8
20260505041255 24 14 0.0 0.0 0.00 0.00 0.00 80 1010.9
20260505040752 24 14 0.0 0.0 0.00 0.00 0.00 81 1010.9
20260505040249 25 14 1.6 1.6 0.00 0.00 0.00 81 1010.9
20260505035746 25 14 0.0 1.6 0.00 0.00 0.00 80 1010.7
20260505035242 25 14 1.6 1.6 0.00 0.00 0.00 80 1011.2
20260505034739 25 14 1.6 1.6 0.00 0.00 0.00 80 1011.2
20260505034236 25 14 1.6 1.6 0.00 0.00 0.00 80 1011.0
20260505033733 25 14 0.0 0.0 0.00 0.00 0.00 80 1011.0
20260505033230 25 14 1.6 0.0 0.00 0.00 0.00 80 1011.1
20260505032728 25 14 0.0 0.0 0.00 0.00 0.00 80 1011.3
20260505032224 25 14 1.6 1.6 0.00 0.00 0.00 80 1011.2
20260505031722 25 14 0.0 0.0 0.00 0.00 0.00 80 1011.1
20260505031218 25 14 0.0 0.0 0.00 0.00 0.00 80 1011.3
20260505030715 25 14 0.0 0.0 0.00 0.00 0.00 81 1011.3
20260505030211 25 14 1.6 1.6 0.00 0.00 0.00 81 1011.2
20260505025707 25 14 1.6 1.6 0.00 0.00 0.00 81 1011.2
20260505025205 25 18 1.6 1.6 0.00 0.00 0.00 81 1011.1
20260505024703 25 23 1.6 3.2 0.00 0.00 0.00 81 1011.4
20260505024200 25 27 1.6 1.6 0.00 0.00 0.00 81 1011.1
20260505023657 25 14 1.6 1.6 0.00 0.00 0.00 81 1011.2
20260505023154 25 17 1.6 0.0 0.00 0.00 0.00 81 1011.3
20260505022652 25 17 0.0 0.0 0.00 0.00 0.00 81 1011.0
20260505022149 25 18 1.6 1.6 0.00 0.00 0.00 81 1011.2
20260505021645 25 17 1.6 1.6 0.00 0.00 0.00 81 1011.0
20260505021142 25 17 1.6 1.6 0.00 0.00 0.00 81 1011.0
20260505020637 25 19 1.6 1.6 0.00 0.00 0.00 81 1010.8
20260505020134 25 22 1.6 1.6 0.00 0.00 0.00 81 1010.8
20260505015631 25 21 0.0 0.0 0.00 0.00 0.00 80 1010.9
20260505015128 26 26 0.0 0.0 0.00 0.00 0.00 79 1010.9
20260505014624 26 28 1.6 1.6 0.00 0.00 0.00 78 1010.8
20260505014121 26 38 1.6 1.6 0.00 0.00 0.00 78 1010.7
20260505013619 26 39 1.6 1.6 0.00 0.00 0.00 77 1010.7
20260505013116 27 39 0.0 0.0 0.00 0.00 0.00 76 1010.6
20260505012614 27 38 1.6 1.6 0.00 0.00 0.00 76 1010.5
20260505012111 27 51 1.6 1.6 0.00 0.00 0.00 76 1010.4
20260505011606 27 51 1.6 1.6 0.00 0.00 0.00 76 1010.5
20260505011104 27 52 1.6 1.6 0.00 0.00 0.00 76 1010.3
20260505010604 27 52 1.6 1.6 0.00 0.00 0.00 75 1010.3
20260505005557 27 49 0.0 1.6 0.00 0.00 0.00 75 1010.3
20260505005055 27 45 1.6 1.6 0.00 0.00 0.00 75 1010.2
20260505004552 27 54 1.6 1.6 0.00 0.00 0.00 74 1009.9
20260505004049 27 58 1.6 1.6 0.00 0.00 0.00 74 1010.1
20260505003546 27 62 3.2 3.2 0.00 0.00 0.00 73 1010.0
20260505003043 27 45 1.6 1.6 0.00 0.00 0.00 73 1009.9
20260505002543 27 58 1.6 1.6 0.00 0.00 0.00 73 1009.8
20260505002043 27 55 3.2 3.2 0.00 0.00 0.00 73 1010.0
20260505001540 27 43 1.6 1.6 0.00 0.00 0.00 72 1009.9
20260505001037 27 63 1.6 1.6 0.00 0.00 0.00 72 1010.0
20260505000535 27 52 1.6 1.6 0.00 0.00 0.00 72 1009.9
20260505000032 27 50 1.6 1.6 0.00 0.00 0.00 72 1009.8
20260504235528 28 62 3.2 3.2 0.00 0.00 0.00 71 1009.9
20260504235025 28 37 3.2 3.2 0.00 0.00 0.00 71 1010.0
20260504234522 28 51 1.6 1.6 0.00 0.00 0.00 70 1009.9
20260504234019 28 35 4.8 3.2 0.00 0.00 0.00 70 1009.8
20260504233514 28 50 1.6 3.2 0.00 0.00 0.00 69 1009.7
20260504233012 28 62 3.2 3.2 0.00 0.00 0.00 69 1009.9
20260504232508 28 42 4.8 4.8 0.00 0.00 0.00 69 1009.8
20260504232006 28 79 4.8 4.8 0.00 0.00 0.00 69 1009.9
20260504231502 28 78 8.0 11.3 0.00 0.00 0.00 69 1009.8
20260504230959 28 130 3.2 3.2 0.00 0.00 0.00 68 1009.7
20260504230455 28 60 6.4 6.4 0.00 0.00 0.00 68 1009.7
20260504225954 28 64 3.2 3.2 0.00 0.00 0.00 69 1009.8
20260504225450 28 87 1.6 1.6 0.00 0.00 0.00 69 1009.7
20260504224948 28 66 4.8 4.8 0.00 0.00 0.00 69 1009.4
20260504224444 28 67 3.2 4.8 0.00 0.00 0.00 69 1009.4
20260504223941 28 82 4.8 4.8 0.00 0.00 0.00 69 1009.5
20260504223437 28 120 6.4 9.7 0.00 0.00 0.00 68 1009.4
20260504222933 28 99 9.7 11.3 0.00 0.00 0.00 68 1009.3
20260504222431 28 78 6.4 11.3 0.00 0.00 0.00 68 1009.3
20260504221929 29 104 9.7 11.3 0.00 0.00 0.00 67 1009.2
20260504221425 29 66 6.4 6.4 0.00 0.00 0.00 66 1009.3
20260504220922 29 52 4.8 4.8 0.00 0.00 0.00 66 1009.0
20260504220419 29 68 6.4 6.4 0.00 0.00 0.00 67 1009.0
20260504215916 29 114 8.0 9.7 0.00 0.00 0.00 66 1009.1
20260504215413 29 98 6.4 6.4 0.00 0.00 0.00 65 1009.0
20260504214909 30 75 6.4 9.7 0.00 0.00 0.00 64 1009.1
20260504214406 30 46 6.4 9.7 0.00 0.00 0.00 65 1008.8
20260504213902 30 61 6.4 6.4 0.00 0.00 0.00 64 1008.6
20260504213358 30 123 8.0 9.7 0.00 0.00 0.00 64 1008.9
20260504212856 30 71 6.4 6.4 0.00 0.00 0.00 63 1008.8
20260504212351 30 113 11.3 14.5 0.00 0.00 0.00 62 1008.7
20260504211850 30 110 8.0 9.7 0.00 0.00 0.00 63 1008.7
20260504211345 30 57 11.3 12.9 0.00 0.00 0.00 61 1008.7
20260504210843 30 59 4.8 6.4 0.00 0.00 0.00 61 1008.8
20260504210340 31 95 12.9 14.5 0.00 0.00 0.00 61 1008.8
20260504205837 31 71 8.0 11.3 0.00 0.00 0.00 60 1008.6
20260504205335 30 57 11.3 12.9 0.00 0.00 0.00 62 1008.7
20260504204833 30 57 11.3 12.9 0.00 0.00 0.00 61 1008.7
20260504204331 30 62 12.9 16.1 0.00 0.00 0.00 60 1008.8
20260504203830 31 129 16.1 20.9 0.00 0.00 0.00 60 1008.7
20260504203326 31 47 6.4 6.4 0.00 0.00 0.00 59 1008.5
20260504202822 31 61 12.9 16.1 0.00 0.00 0.00 58 1009.0
20260504202320 31 96 8.0 14.5 0.00 0.00 0.00 58 1008.9
20260504201816 31 142 11.3 14.5 0.00 0.00 0.00 59 1008.6
20260504201314 31 67 12.9 16.1 0.00 0.00 0.00 62 1008.6
20260504200811 31 153 12.9 12.9 0.00 0.00 0.00 61 1008.7
20260504200307 31 70 14.5 16.1 0.00 0.00 0.00 59 1008.8
20260504195803 31 131 9.7 9.7 0.00 0.00 0.00 58 1009.0
20260504195259 31 111 8.0 9.7 0.00 0.00 0.00 57 1008.9
20260504194756 31 131 11.3 12.9 0.00 0.00 0.00 56 1009.2
20260504194253 31 78 14.5 16.1 0.00 0.00 0.00 56 1009.0
20260504193749 31 58 8.0 9.7 0.00 0.00 0.00 55 1008.9
20260504193246 31 75 6.4 9.7 0.00 0.00 0.00 58 1009.1
20260504192745 31 89 16.1 16.1 0.00 0.00 0.00 54 1009.2
20260504192242 31 63 12.9 16.1 0.00 0.00 0.00 55 1009.3
20260504191741 31 66 12.9 14.5 0.00 0.00 0.00 55 1009.3
20260504191237 32 116 14.5 17.7 0.00 0.00 0.00 52 1009.2
20260504190733 32 66 11.3 16.1 0.00 0.00 0.00 54 1009.1
20260504190230 31 66 16.1 20.9 0.00 0.00 0.00 57 1009.2
20260504185726 32 88 16.1 17.7 0.00 0.00 0.00 58 1009.3
20260504185223 32 104 11.3 16.1 0.00 0.00 0.00 53 1009.3
20260504184719 31 117 11.3 12.9 0.00 0.00 0.00 54 1009.4
20260504184215 31 103 14.5 16.1 0.00 0.00 0.00 54 1009.6
20260504183711 31 66 14.5 16.1 0.00 0.00 0.00 54 1009.2
20260504183208 31 55 17.7 22.5 0.00 0.00 0.00 54 1009.5
20260504182706 31 126 14.5 17.7 0.00 0.00 0.00 55 1009.6
20260504182203 31 90 12.9 14.5 0.00 0.00 0.00 56 1009.5
20260504181701 31 87 16.1 22.5 0.00 0.00 0.00 56 1009.6
20260504181158 31 142 16.1 17.7 0.00 0.00 0.00 58 1009.8
20260504180657 31 52 17.7 22.5 0.00 0.00 0.00 57 1009.7
20260504180155 31 153 11.3 14.5 0.00 0.00 0.00 56 1009.6
20260504175652 31 74 9.7 12.9 0.00 0.00 0.00 57 1009.6
20260504175149 31 91 16.1 20.9 0.00 0.00 0.00 57 1009.7
20260504174647 32 84 11.3 14.5 0.00 0.00 0.00 58 1009.7
20260504174143 31 89 11.3 14.5 0.00 0.00 0.00 56 1010.0
20260504173641 31 114 16.1 16.1 0.00 0.00 0.00 58 1010.1
20260504173138 31 156 16.1 17.7 0.00 0.00 0.00 55 1010.1
20260504172634 32 127 14.5 16.1 0.00 0.00 0.00 55 1010.1
20260504172131 32 148 11.3 14.5 0.00 0.00 0.00 53 1010.2
20260504171627 32 67 22.5 27.4 0.00 0.00 0.00 53 1010.5
20260504171125 32 132 16.1 17.7 0.00 0.00 0.00 55 1010.2
20260504170621 32 97 11.3 14.5 0.00 0.00 0.00 55 1010.4
20260504170119 31 56 14.5 14.5 0.00 0.00 0.00 54 1010.4
20260504151004 31 128 12.9 14.5 0.00 0.00 0.00 53 1010.6
20260504150501 31 116 12.9 17.7 0.00 0.00 0.00 47 1010.5
20260504140927 30 62 14.5 17.7 0.00 0.00 0.00 59 1010.9
20260504140424 30 86 16.1 22.5 0.00 0.00 0.00 59 1010.8
20260504130349 30 78 17.7 17.7 0.00 0.00 0.00 61 1010.7
20260504120311 28 87 4.8 12.9 0.00 0.00 0.00 66 1010.6
20260504110236 25 357 1.6 1.6 0.00 0.00 0.00 77 1010.3
20260504100159 22 351 1.6 1.6 0.00 0.00 0.00 87 1010.0
20260504090122 22 351 0.0 0.0 0.00 0.00 0.00 87 1009.7